Location: Brummen
(52.0898°N, 6.1565°E)
Time: 20:27:08
(UTC+00:00)

Meteor 1-11 - Pass Details

Date: 17 July 2025
Orbit: 827 x 897 km, 81.2° (Epoch: 13 April)

Event Time Altitude Azimuth Distance (km) Brightness Sun altitude
Rises 19:16:47 0° 131° (SE) 3,504 6.7 3.0°
Reaches altitude 10° 19:20:31 10° 107° (ESE) 2,565 6.1 2.5°
Drops below altitude 10° 19:26:04 10° 50° (NE) 2,559 6.6 1.8°
Enters shadow 20:31:08 -57° 189° (S) 11,729 9.9 -5.9°
Maximum altitude 21:05:27 73° 99° (E) 933 4.3 -9.3°
